DateTimeUTC,F1_A11,F1_S11,BsB_S11,BsG_S11,BsR_S11,BbsB_S11,BbsG_S11,BbsR_S11,BaB_A11,BaG_A11,BaR_A11,Tu_S11,T_S11,Uu_S11,U_S11,P_S11,T1_A11
2021-08-15T18:00:00Z,00000200,20000000,,,,,,,-000.23,-000.44,-000.38,19.8,26.2,13.6,09.2,0674.0,31.0
2021-08-15T18:01:00Z,00000200,20000000,,,,,,,0000.19,0000.18,-000.04,19.8,26.2,13.6,09.2,0674.0,31.0
2021-08-15T18:02:00Z,00000200,20000000,,,,,,,-000.12,-000.24,0000.10,19.8,26.2,13.6,09.2,0674.0,31.0
2021-08-15T18:03:00Z,00000200,60000000,,,,,,,0000.34,0000.71,0000.42,19.8,26.2,13.6,09.2,0674.0,31.0
2021-08-15T18:04:00Z,00000200,40000000,0002.20,0002.29,0001.55,0000.46,0000.17,0000.13,0000.65,0000.35,0000.39,19.9,26.0,13.4,09.3,0675.0,31.0
2021-08-15T18:05:00Z,00000200,00000000,0003.18,0002.49,0001.42,0000.98,0000.32,0000.33,0000.59,0000.87,0000.65,20.0,26.0,13.5,09.4,0675.1,31.0
2021-08-15T18:06:00Z,00000200,00000000,0002.12,0002.20,0001.55,0000.59,0000.31,-000.02,0000.52,0000.36,0000.13,20.0,26.0,13.5,09.4,0675.1,31.0
2021-08-15T18:07:00Z,00000200,00000000,0002.39,0002.09,0001.63,0000.17,0000.23,0000.38,0000.48,0000.48,0000.57,20.0,26.0,13.5,09.4,0675.1,31.0
2021-08-15T18:08:00Z,00000200,00000000,0002.43,0002.14,0001.63,0000.24,0000.07,0000.35,0000.77,0000.35,0000.25,20.0,25.9,13.6,09.5,0675.1,31.0
2021-08-15T18:09:00Z,00000200,00000000,0002.47,0002.29,0001.74,0000.60,0000.15,0000.53,0000.06,0000.78,0000.45,20.0,25.9,13.6,09.5,0675.1,31.0
2021-08-15T18:10:00Z,00000200,00000000,0002.37,0002.14,0001.50,0000.05,0000.08,0000.47,0000.66,0000.18,0000.07,20.0,25.9,13.4,09.4,0675.1,31.0
2021-08-15T18:11:00Z,00000200,00000000,0002.31,0001.99,0001.48,0000.69,0000.51,0000.53,0000.64,0000.06,0000.69,20.0,25.9,13.5,09.4,0675.1,31.0
2021-08-15T18:12:00Z,00000200,00000000,0002.11,0002.17,0001.59,0000.60,0000.35,0000.34,-000.00,0000.82,0000.17,20.0,26.0,13.5,09.4,0675.1,31.0
2021-08-15T18:13:00Z,00000200,00000000,0001.80,0002.06,0001.16,-000.30,0000.60,0000.20,0000.87,0000.62,0000.83,20.0,25.9,13.5,09.4,0675.1,31.0
2021-08-15T18:14:00Z,00000200,00000000,0002.19,0002.06,0001.24,0000.17,0000.33,0000.17,0000.18,0000.13,0000.10,20.0,25.9,13.5,09.4,0675.1,31.0
2021-08-15T18:15:00Z,00000200,00000000,0002.26,0002.05,0001.36,0000.36,0000.13,0000.12,0000.37,0000.46,0000.06,20.0,26.0,13.4,09.4,0675.1,31.0
2021-08-15T18:16:00Z,00000200,00000000,0001.48,0001.57,0001.51,0000.16,-000.16,0000.58,0000.82,0000.45,0000.81,20.0,25.9,13.6,09.5,0675.1,31.0
2021-08-15T18:17:00Z,00000200,00000000,0001.76,0001.92,0001.27,-000.50,-000.09,0000.13,0000.49,0000.81,0000.73,20.0,25.9,13.6,09.5,0675.1,31.0
2021-08-15T18:18:00Z,00000200,00000000,0002.28,0002.06,0000.98,0000.30,-000.02,0000.07,0000.60,-000.03,-000.04,20.0,25.9,13.5,09.4,0675.1,31.0
2021-08-15T18:19:00Z,00000200,00000000,0002.27,0001.43,0000.97,0000.44,-000.10,-000.22,-000.03,0000.50,0000.01,20.0,25.9,13.5,09.5,0675.1,31.0
2021-08-15T18:20:00Z,00000200,00000000,0002.29,0001.98,0000.82,0000.43,0000.11,0000.13,0000.33,0000.05,0000.21,20.0,25.9,13.4,09.4,0675.1,31.0
2021-08-15T18:21:00Z,00000200,00000000,0002.15,0001.77,0001.22,0000.51,0000.01,0000.27,0000.64,0000.98,0000.30,20.0,25.9,13.4,09.4,0675.1,31.0
2021-08-15T18:22:00Z,00000200,00000000,0002.41,0001.91,0001.28,0000.46,0000.23,0000.32,0000.11,0000.26,0000.55,20.0,25.9,13.5,09.5,0675.1,31.0
2021-08-15T18:23:00Z,00000200,00000000,0001.95,0002.04,0001.46,0000.09,-000.02,0000.22,0000.81,0000.36,0000.48,20.0,25.9,13.5,09.5,0675.1,31.0
2021-08-15T18:24:00Z,00000200,00000000,0001.52,0001.65,0001.46,0000.36,0000.22,0000.11,0000.56,0000.46,0000.23,20.0,25.9,13.6,09.5,0675.1,31.0
2021-08-15T18:25:00Z,00000200,00000000,0001.93,0001.58,0001.04,0000.29,-000.10,-000.17,-000.09,-000.10,0000.33,20.0,25.9,13.5,09.4,0675.1,31.0
2021-08-15T18:26:00Z,00000200,00000000,0001.91,0001.39,0001.03,-000.12,0000.17,-000.05,0000.43,0000.59,0000.13,20.0,25.9,13.5,09.4,0675.1,31.0
2021-08-15T18:27:00Z,00000200,00000000,0002.45,0001.75,0001.14,0000.14,-000.00,-000.08,0000.75,0000.40,0000.16,20.0,25.9,13.4,09.4,0675.1,31.0
2021-08-15T18:28:00Z,00000200,00000000,0002.11,0001.43,0001.22,0000.28,0000.08,0000.09,-000.15,-000.02,0000.65,20.0,25.9,13.4,09.4,0675.1,31.0
2021-08-15T18:29:00Z,00000200,00000000,0001.68,0001.77,0001.04,0000.28,0000.11,0000.11,0000.36,0000.35,0000.14,20.0,25.9,13.3,09.3,0675.1,31.0
2021-08-15T18:30:00Z,00000200,00000000,0000.32,0001.43,0001.17,0000.13,0000.22,0000.10,0000.82,0000.70,0000.31,20.0,25.9,13.5,09.4,0675.1,31.0
2021-08-15T18:31:00Z,00000200,00000000,0001.17,0001.34,0000.63,0000.17,-000.38,-000.01,-000.18,-000.25,-000.12,20.0,25.9,13.4,09.4,0675.1,31.0
2021-08-15T18:32:00Z,00000200,00000000,0000.99,0001.35,0001.14,0000.11,0000.37,-000.27,0000.45,0000.44,0000.52,20.0,25.9,13.5,09.4,0675.1,31.0
2021-08-15T18:33:00Z,00000200,00000000,0002.47,0001.47,0001.41,0000.26,0000.22,0000.02,0000.78,0000.70,0000.50,20.0,25.9,13.4,09.4,0675.1,31.0
2021-08-15T18:34:00Z,00000200,00000000,0001.66,0001.73,0000.90,0000.07,0000.06,-000.16,0000.03,0000.40,0000.15,20.0,25.9,13.5,09.4,0675.1,31.0
2021-08-15T18:35:00Z,00000200,00000000,0001.34,0001.76,0001.10,0000.12,-000.15,0000.21,0000.53,0000.26,0000.16,20.0,25.9,13.5,09.4,0675.1,31.0
2021-08-15T18:36:00Z,00000200,00000000,0001.20,0001.71,0001.04,0000.10,0000.21,0000.24,0000.33,0000.22,0000.34,20.0,25.9,13.6,09.5,0675.1,31.0
2021-08-15T18:37:00Z,00000200,00000000,0002.42,0001.66,0001.00,0000.65,0000.31,-000.01,0000.45,0000.56,0000.46,20.0,25.9,13.5,09.5,0675.2,31.0
2021-08-15T18:38:00Z,00000200,00000000,0001.48,0001.74,0000.99,0000.56,0000.15,0000.23,0000.24,0000.43,0000.04,20.0,25.9,13.5,09.4,0675.1,31.0
2021-08-15T18:39:00Z,00000200,00000000,0001.44,0002.02,0001.35,-000.11,-000.17,0000.43,0000.46,0000.20,0000.32,20.0,25.9,13.5,09.4,0675.1,31.0
2021-08-15T18:40:00Z,00000200,00000000,0002.46,0001.54,0001.29,-000.06,0000.39,-000.04,-000.11,-000.15,0000.30,20.0,25.9,13.4,09.3,0675.2,31.0
2021-08-15T18:41:00Z,00000200,00000000,0001.92,0001.69,0000.89,0000.89,0000.46,-000.10,0000.55,0000.53,0000.17,20.0,25.9,13.4,09.4,0675.2,31.0
2021-08-15T18:42:00Z,00000200,00000000,0002.06,0001.66,0000.92,0000.35,0000.14,0000.26,0000.73,0000.44,0000.36,20.0,25.9,13.4,09.4,0675.2,31.0
2021-08-15T18:43:00Z,00000200,00000000,0001.06,0001.83,0001.50,0000.10,-000.05,0000.37,0000.07,0000.11,0000.15,20.0,25.9,13.3,09.3,0675.2,31.0
2021-08-15T18:44:00Z,00000200,00000000,0002.51,0001.54,0001.05,0000.22,-000.02,0000.21,0000.21,0000.31,0000.05,20.0,25.9,13.3,09.3,0675.2,31.0
2021-08-15T18:45:00Z,00000200,00000000,0002.04,0001.59,0001.55,-000.45,0000.07,0000.20,0000.49,0000.80,0000.81,20.0,25.9,13.4,09.4,0675.2,31.0
2021-08-15T18:46:00Z,00000200,00000000,0001.48,0001.40,0001.13,0000.15,0000.10,0000.35,0000.39,0000.37,0000.09,20.0,25.9,13.3,09.3,0675.2,31.0
2021-08-15T18:47:00Z,00000200,00000000,0002.02,0001.87,0001.16,0001.19,-000.01,0000.25,0000.30,0000.16,0000.38,20.0,25.9,13.4,09.4,0675.2,31.0
2021-08-15T18:48:00Z,00000200,00000000,0001.28,0001.70,0000.98,-000.64,-000.09,-000.14,0000.39,0000.47,0000.34,20.0,25.9,13.4,09.3,0675.2,31.0
2021-08-15T18:49:00Z,00000200,00000000,0001.90,0001.67,0001.30,-000.00,-000.09,0000.43,0000.74,0000.66,0000.26,20.0,25.9,13.4,09.4,0675.2,31.0
2021-08-15T18:50:00Z,00000200,00000000,0001.84,0001.59,0001.33,0000.45,-000.10,0000.19,0000.15,-000.18,0000.54,20.0,25.9,13.4,09.4,0675.2,31.0
2021-08-15T18:51:00Z,00000200,00000000,0002.18,0001.56,0001.30,0000.01,-000.06,0000.06,0000.44,0000.81,0000.39,20.0,25.9,13.3,09.3,0675.2,31.0
2021-08-15T18:52:00Z,00000200,00000000,0001.73,0001.62,0001.20,0001.23,0000.16,0000.22,0000.63,0000.36,0000.27,20.0,25.9,13.4,09.4,0675.2,31.0
2021-08-15T18:53:00Z,00000200,00000000,0001.54,0001.73,0001.12,-000.04,0000.09,-000.25,0000.13,0000.46,-000.02,20.0,25.9,13.4,09.3,0675.2,31.0
2021-08-15T18:54:00Z,00000200,00000000,0000.99,0001.69,0001.37,0000.20,0000.09,0000.34,0000.53,0000.15,0000.46,20.0,25.9,13.4,09.4,0675.2,31.0
2021-08-15T18:55:00Z,00000200,00000000,0002.25,0001.97,0001.19,0000.38,0000.13,-000.06,-000.10,0000.29,0000.13,20.0,25.9,13.3,09.3,0675.3,31.0
2021-08-15T18:56:00Z,00000200,00000000,0002.33,0001.75,0001.60,0000.67,0000.07,0000.15,0000.66,0000.32,0000.55,20.0,25.9,13.3,09.3,0675.3,31.0
2021-08-15T18:57:00Z,00000200,40000000,,,,,,,0000.21,0000.11,0000.00,20.0,25.9,12.9,09.0,0675.2,31.0
2021-08-15T18:58:00Z,00000200,60000000,,,,,,,-000.05,-000.45,-000.18,19.8,26.0,13.4,09.2,0674.3,31.0
2021-08-15T18:59:00Z,00000200,20000000,,,,,,,-000.03,0000.09,-000.26,19.8,26.1,13.2,09.0,0674.2,31.0
